SCP
0 0 0 0 0 0 0 0 0 0 0 0 0 0 0 0 0 0 0 0 0 0 0 0 0 0 0 0 0 0 0 0 0 0 0 0 0 0 0 0 0 0 0
0 0 0 0 0 0 0 0 0 0 0 0 0 0 0 0 0 0 0 0 0 0 0 0 0 0 0 0 0 0 0 0 0 0 0 0 0 0 0 0 0 0 0
0 0 0 0 0 0 0 0 0 0 0 0 0 0 0 0 0 0 0 0 0 0 0 0 0 0 0 0 0 0 0 0 0 0 0 0 0 0 0 0 0 0 0
0 0 0 0 0 0 0 0 0 0 0 0 0 0 0 0 0 0 0 0 0 0 0 0 0 0 0 0 0 0 0 0 0 0 0 0 0 0 0 0 0 0 0
0 0 0 0 0 0 0 0 0 0 0 0 0 0 0 0 0 0 0 0 0 0 0 0 0 0 0 0 0 0 0 0 0 0 0 0 0 0 0 0 0 0 0
0 0 0 0 0 0 0 0 0 0 0 0 0 0 0 0 0 0 0 0 0 0 0 0 0 0 0 0 0 0 0 0 0 0 0 0 0 0 0 0 0 0 0
0 0 0 0 0 0 0 0 0 0 0 0 0 0 0 0 0 0 0 0 0 0 0 0 0 0 0 0 0 0 0 0 0 0 0 0 0 0 0 0 0 0 0
0 0 0 0 0 0 0 0 0 0 0 0 0 0 0 0 0 0 0 0 0 0 0 0 0 0 0 0 0 0 0 0 0 0 0 0 0 0 0 0 0 0 0
0 0 0 0 0 0 0 0 0 0 0 0 0 0 0 0 0 0 0 0 0 0 0 0 0 0 0 0 0 0 0 0 0 0 0 0 0 0 0 0 0 0 0
0 0 0 0 0 0 0 0 0 0 0 0 0 0 0 0 0 0 0 0 0 0 0 0 0 0 0 0 0 0 0 0 0 0 0 0 0 0 0 0 0 0 0
0 0 0 0 0 0 0 0 0 0 0 0 0 0 0 0 0 0 0 0 0 0 0 0 0 0 0 0 0 0 0 0 0 0 0 0 0 0 0 0 0 0 0
0 0 0 0 0 0 0 0 0 0 0 0 0 0 0 0 0 0 0 0 0 0 0 0 0 0 0 0 0 0 0 0 0 0 0 0 0 0 0 0 0 0 0
0 0 0 0 0 0 0 0 0 0 0 0 0 0 0 0 0 0 0 0 0 0 0 0 0 0 0 0 0 0 0 0 0 0 0 0 0 0 0 0 0 0 0
0 0 0 0 0 0 0 0 0 0 0 0 0 0 0 0 0 0 0 0 0 0 0 0 0 0 0 0 0 0 0 0 0 0 0 0 0 0 0 0 0 0 0
0 0 0 0 0 0 0 0 0 0 0 0 0 0 0 0 0 0 0 0 0 0 0 0 0 0 0 0 0 0 0 0 0 0 0 0 0 0 0 0 0 0 0
0 0 0 0 0 0 0 0 0 0 0 0 0 0 0 0 0 0 0 0 0 0 0 0 0 0 0 0 0 0 0 0 0 0 0 0 0 0 0 0 0 0 0
0 0 0 0 0 0 0 0 0 0 0 0 0 0 0 0 0 0 0 0 0 0 0 0 0 0 0 0 0 0 0 0 0 0 0 0 0 0 0 0 0 0 0
0 0 0 0 0 0 0 0 0 0 0 0 0 0 0 0 0 0 0 0 0 0 0 0 0 0 0 0 0 0 0 0 0 0 0 0 0 0 0 0 0 0 0
0 0 0 0 0 0 0 0 0 0 0 0 0 0 0 0 0 0 0 0 0 0 0 0 0 0 0 0 0 0 0 0 0 0 0 0 0 0 0 0 0 0 0
0 0 0 0 0 0 0 0 0 0 0 0 0 0 0 0 0 0 0 0 0 0 0 0 0 0 0 0 0 0 0 0 0 0 0 0 0 0 0 0 0 0 0
0 0 0 0 0 0 0 0 0 0 0 0 0 0 0 0 0 0 0 0 0 0 0 0 0 0 0 0 0 0 0 0 0 0 0 0 0 0 0 0 0 0 0
0 0 0 0 0 0 0 0 0 0 0 0 0 0 0 0 0 0 0 0 0 0 0 0 0 0 0 0 0 0 0 0 0 0 0 0 0 0 0 0 0 0 0
1 1 1 0 0 0 0 0 0 0 0 0 0 0 0 0 0 0 0 0 0 0 0 0 0 0 0 0 0 0 0 0 0 0 0 0 0 0 0 0 0 0 0
1 1 1 0 0 0 0 0 0 0 0 0 0 0 0 0 0 0 0 0 0 0 0 0 0 0 0 0 0 0 0 0 0 0 0 0 0 0 0 0 0 0 0
1 0 0 0 0 0 0 0 0 0 0 0 0 0 0 0 0 0 0 0 0 0 0 0 0 0 0 0 0 0 0 0 0 0 0 0 0 0 0 0 0 0 0
0 0 0 0 0 0 0 0 0 0 0 0 0 0 0 0 0 0 0 0 0 0 0 0 0 0 0 0 0 0 0 0 0 0 0 0 0 0 0 0 0 0 0
Wind_Speed
1 1 0 1 1 1 1 1 1 2 2 2 1 0 0 0 1 1 1 4 4 5 5 6 6 7 7 7 8 9 9 9 9 8 9 9 9 9 8 9 9 9 8
1 1 1 0 0 1 1 1 1 1 1 1 1 1 0 0 1 1 1 0 2 3 4 4 5 6 7 7 7 8 9 9 8 9 9 9 9 9 9 9 8 8 8
2 1 1 0 0 1 1 1 1 1 1 1 1 1 1 1 1 1 1 1 1 0 2 3 4 5 5 6 6 7 7 8 8 9 9 9 9 9 9 8 8 8 8
2 2 1 1 1 1 1 1 1 1 1 1 1 1 1 2 2 1 1 1 1 1 1 1 2 2 3 4 6 7 7 7 8 8 9 9 9 9 9 8 8 8 8
1 2 1 1 1 1 1 1 1 1 1 1 1 2 2 2 1 1 2 2 1 1 1 2 2 2 2 4 4 5 6 6 7 8 8 8 8 8 8 8 8 8 8
1 2 1 1 2 2 1 1 2 2 1 1 2 3 3 3 2 2 2 2 2 2 2 2 2 2 3 2 2 2 2 4 5 6 7 8 8 7 8 8 8 8 9
2 2 1 1 2 2 1 2 2 3 2 2 3 3 3 3 3 2 2 2 2 3 3 3 2 2 2 5 5 4 3 1 2 3 4 6 7 6 7 7 8 8 8
1 2 2 1 1 2 2 2 2 2 1 1 2 2 1 2 2 3 2 2 2 2 3 3 3 3 2 2 4 5 4 3 1 1 1 3 4 4 4 5 6 6 7
1 1 1 1 1 2 1 1 2 2 2 1 1 2 2 1 0 2 3 2 2 2 2 2 3 4 3 3 3 4 5 5 4 3 2 2 3 3 3 3 4 5 6
1 1 1 1 1 1 1 1 2 1 2 1 1 1 1 2 2 0 1 2 2 2 2 2 2 3 3 3 3 5 7 6 5 4 4 4 3 2 3 3 3 3 4
1 1 1 1 1 1 1 2 2 2 1 2 1 1 1 2 1 2 1 0 1 1 1 1 1 2 3 3 2 4 6 6 6 6 5 5 4 4 3 3 2 2 3
1 1 1 1 1 1 1 2 2 2 2 2 1 1 2 1 1 2 2 1 0 1 1 1 1 1 1 2 3 4 5 6 6 5 5 5 4 3 3 2 2 2 2
0 0 1 1 1 1 1 2 2 1 2 2 2 1 1 1 1 2 2 1 1 0 1 1 1 1 1 1 2 3 3 4 5 5 5 4 4 3 2 2 2 2 2
1 1 1 1 1 1 2 2 2 1 2 2 2 2 1 1 2 2 2 3 2 0 1 1 0 0 1 1 1 2 2 3 4 4 4 4 4 4 4 3 3 3 3
1 1 2 2 1 2 2 2 2 1 2 1 1 1 1 1 1 1 2 3 3 2 1 1 1 1 1 0 0 1 1 2 3 3 3 3 4 4 4 5 4 4 4
1 2 2 2 2 2 2 2 2 1 2 1 1 1 1 0 1 1 2 2 2 3 2 1 1 1 1 0 1 0 0 1 2 2 2 2 3 3 3 3 3 3 4
2 2 2 2 2 2 2 2 2 2 2 1 1 1 1 1 1 1 2 2 2 2 2 1 1 1 2 1 0 1 0 0 0 1 1 1 1 1 2 2 2 2 3
2 2 2 2 2 2 2 2 2 2 2 2 1 1 1 1 2 2 2 2 2 2 2 2 1 1 2 1 1 1 1 1 1 0 1 1 1 1 1 2 1 2 2
2 2 2 2 2 2 2 3 3 2 2 2 2 2 2 2 2 2 3 2 2 2 1 2 1 1 1 1 1 1 1 1 1 1 2 2 2 2 2 2 2 2 2
3 3 3 3 3 2 2 3 3 3 2 2 2 2 2 3 3 3 3 3 3 2 2 2 1 1 1 1 1 1 1 1 2 2 2 2 2 3 3 3 3 3 4
4 3 3 2 2 2 3 3 3 3 3 2 2 2 3 3 4 4 3 4 4 3 2 2 1 1 2 2 2 2 2 1 2 2 2 2 2 2 3 4 5 5 5
3 3 3 3 3 3 3 4 4 3 3 3 2 2 2 2 3 4 4 5 6 5 4 3 2 3 4 4 2 3 2 1 2 2 2 3 2 3 3 3 5 6 6
4 4 4 4 4 4 4 5 5 4 3 3 3 2 2 2 2 2 3 3 4 4 5 5 4 5 4 5 4 4 4 4 4 2 2 3 2 4 3 4 7 7 7
4 4 3 3 3 4 5 5 5 3 2 3 3 3 3 2 2 3 2 2 2 3 4 4 5 5 5 4 5 5 4 3 2 2 3 3 3 3 3 4 7 8 8
4 4 3 4 4 4 5 5 5 2 2 3 3 3 3 3 4 4 3 3 3 3 4 5 5 5 4 4 4 2 2 2 3 3 3 3 3 3 3 4 4 7 9
5 4 4 4 5 5 5 6 6 3 2 3 2 3 4 5 5 5 5 4 5 5 3 2 3 3 3 3 5 5 4 4 3 3 3 4 2 2 3 3 3 4 5
Wind_Direction
137 127 105 70 66 84 95 82 67 54 45 32 26 29 339 328 214 179 183 199 200 200 203 209 216 218 216 219 219 215 215 216 214 208 211 213 214 211 209 209 209 206 200
147 132 101 77 70 90 116 112 107 87 57 38 17 14 355 44 83 116 111 175 194 184 206 217 226 224 223 225 225 221 222 223 219 213 214 215 215 216 216 216 214 205 198
151 143 134 129 117 107 106 99 93 88 77 57 27 20 40 62 86 87 91 74 38 205 232 225 231 229 223 226 231 233 227 227 224 216 213 213 214 218 224 216 211 203 198
134 135 143 163 129 117 111 115 104 93 77 71 56 43 50 56 69 85 82 67 34 1 337 253 239 240 226 230 240 240 231 229 228 223 217 215 215 216 220 212 210 209 205
123 133 143 146 128 113 104 129 99 114 111 97 83 56 43 48 44 68 78 71 57 35 19 25 17 339 277 256 249 248 234 224 223 223 217 213 215 216 216 212 213 209 204
116 121 122 122 123 110 92 98 103 95 100 105 82 63 49 45 46 46 54 59 55 44 36 33 18 358 1 343 318 294 253 236 231 227 219 214 216 215 211 209 210 209 208
96 107 112 114 118 116 120 117 106 93 78 90 90 70 47 47 50 41 43 53 49 42 49 47 34 24 10 23 19 19 359 316 251 221 217 212 211 210 209 208 208 207 204
82 101 117 129 127 117 98 98 105 108 87 85 110 112 66 24 35 39 39 61 58 52 49 47 42 35 22 13 17 30 30 33 47 154 177 187 195 186 187 198 195 193 193
71 85 113 123 123 131 136 133 130 129 124 92 80 129 142 193 28 27 35 52 57 52 44 44 47 40 31 23 15 26 41 43 48 55 99 121 141 154 165 174 178 186 190
57 81 83 104 117 124 133 152 130 122 126 131 86 56 110 141 145 104 23 41 48 48 38 39 41 40 35 25 26 43 48 48 48 59 76 93 111 131 150 169 176 178 180
16 47 93 105 107 118 131 119 119 124 131 137 133 117 90 73 101 145 181 43 41 30 32 33 33 34 32 24 15 46 54 53 52 58 68 72 76 88 104 127 141 152 163
1 31 91 103 117 129 139 146 134 127 128 124 129 137 144 147 164 151 159 163 155 11 26 33 29 20 17 15 20 41 53 54 52 55 60 64 68 73 76 85 105 130 136
315 322 102 115 125 144 146 135 124 125 138 141 153 163 160 156 147 143 139 145 140 359 356 17 18 349 350 0 359 21 44 55 52 49 51 55 57 62 67 71 77 79 105
225 200 147 140 136 126 123 125 117 132 127 139 145 148 155 164 155 155 152 146 136 73 339 291 340 295 312 323 360 16 32 49 53 50 51 54 57 58 59 60 61 76 86
191 159 141 128 117 113 115 120 118 122 124 129 138 141 141 171 164 158 147 152 153 172 231 249 254 262 254 236 4 26 37 46 53 57 59 64 65 63 67 66 64 66 75
171 150 145 140 132 128 127 122 122 124 122 125 137 125 119 141 144 146 152 146 149 161 188 213 223 228 216 193 158 175 59 44 44 49 48 55 65 72 77 76 72 72 81
176 177 177 168 163 158 150 144 153 143 144 136 133 145 187 155 147 150 146 143 144 150 164 212 214 196 180 204 248 223 199 204 327 32 63 75 67 87 100 105 94 90 96
189 189 182 178 185 179 169 173 186 173 172 176 184 165 196 162 157 165 162 167 167 166 164 193 199 182 199 209 228 235 229 199 224 224 206 179 182 160 147 139 131 121 116
191 189 182 189 196 191 187 193 190 187 191 200 204 202 208 175 189 189 182 180 177 166 155 170 191 188 203 177 176 247 238 245 241 225 222 226 219 210 202 195 190 181 173
185 192 198 203 205 203 198 195 188 191 200 212 217 219 212 199 207 200 191 188 176 165 153 158 177 195 210 183 177 218 246 241 249 244 236 241 233 224 222 220 212 206 200
196 197 195 205 211 210 213 199 196 198 203 218 235 238 228 215 211 203 197 193 180 176 169 178 194 199 209 197 214 210 227 248 252 235 235 243 242 238 232 230 225 218 211
195 189 198 205 212 222 215 205 196 200 201 210 233 247 243 232 230 222 217 197 183 181 188 191 206 222 230 222 209 205 205 220 253 214 218 246 228 241 238 230 228 218 213
194 196 207 208 219 227 218 216 207 200 204 212 222 231 244 247 225 218 223 208 208 211 193 191 210 225 227 218 203 209 212 220 236 208 196 246 235 245 245 238 228 224 219
194 202 213 215 222 239 222 216 205 203 207 221 225 226 232 247 229 204 201 204 226 236 226 217 223 232 233 218 206 212 213 217 239 218 195 236 239 244 250 243 230 222 219
196 198 202 210 219 245 231 214 195 195 215 241 244 232 224 235 239 204 194 215 244 260 250 239 240 248 245 220 192 177 181 205 245 236 199 221 238 248 250 246 235 222 219
199 198 206 213 217 233 234 216 195 194 217 241 247 242 231 229 231 207 203 210 234 252 253 257 259 264 252 232 200 199 201 210 233 240 197 201 219 215 251 240 236 226 221